Wind_Speed
30 30 30 30 30 30 31 32 33 33 33 34 35 35 36 37 38 38 38 36 35 35 36 36 36 35 35 35 36 36 36 36 35 35 35 36 37 37 36 35 34 35 35
29 30 30 30 30 30 30 31 32 33 33 33 34 35 36 37 36 36 36 36 35 34 34 35 36 36 35 35 35 35 35 34 34 34 34 35 36 36 36 35 35 35 35
28 29 29 29 30 30 30 31 32 32 32 33 34 34 35 35 35 35 35 35 35 34 34 35 36 36 35 35 35 35 34 33 34 34 34 34 35 36 36 35 35 34 34
28 28 28 28 28 28 29 30 31 32 32 32 33 33 33 33 33 33 33 34 34 35 35 34 35 34 35 35 35 34 33 33 33 33 33 34 34 35 35 35 34 34 34
27 27 27 28 29 29 29 30 30 30 31 32 32 32 31 32 31 31 32 33 34 35 35 34 34 34 34 34 33 33 32 32 32 33 33 34 34 34 34 34 34 34 34
26 26 26 27 28 29 29 29 30 30 31 32 32 32 32 31 30 30 31 32 33 33 33 33 33 33 32 32 32 32 32 31 31 31 32 33 33 33 33 33 33 33 33
25 25 25 25 26 27 28 29 30 30 31 32 32 32 31 31 30 31 31 31 32 32 32 32 32 32 32 32 32 31 31 30 30 30 30 31 32 32 33 33 32 32 31
25 24 23 24 25 27 28 28 29 30 30 30 30 31 31 31 30 31 31 30 30 29 29 30 31 32 32 32 31 30 30 30 30 30 30 31 31 31 32 32 31 31 31
24 24 24 24 25 26 27 27 28 28 29 29 29 29 29 28 29 29 29 29 28 28 28 29 30 30 31 30 30 30 31 31 31 31 32 31 31 31 31 30 30 30 29
24 24 24 24 25 26 27 27 27 27 27 28 28 27 27 27 27 27 27 28 28 28 28 28 28 29 29 29 29 30 31 30 30 30 30 30 30 30 30 30 29 29 28
24 24 24 24 25 24 25 25 25 25 26 26 27 26 26 26 26 25 25 27 28 28 27 28 28 28 28 28 29 30 30 30 30 30 30 30 30 30 30 29 29 28 27
24 24 24 25 24 24 24 24 23 23 24 25 25 25 25 25 24 24 24 25 26 26 27 27 27 27 27 28 29 29 29 30 30 30 30 29 29 29 28 28 27 26 26
23 23 23 24 25 24 23 23 22 23 23 24 24 24 24 23 22 23 23 23 24 25 25 25 25 26 27 27 28 28 29 30 30 29 29 28 27 27 26 26 25 25 25
24 24 23 24 24 24 24 23 23 23 23 23 23 22 22 21 21 22 23 23 23 24 24 25 26 25 26 26 27 28 28 29 29 29 29 28 27 26 25 24 24 24 23
23 22 22 23 23 23 23 22 22 22 22 22 22 22 21 21 21 22 22 22 23 23 23 24 25 25 25 25 25 26 27 27 27 28 28 27 26 25 24 23 22 21 21
23 22 22 22 22 21 20 20 20 20 20 20 20 21 21 21 21 22 22 22 22 22 23 23 23 24 24 24 24 24 25 25 25 26 26 25 24 23 23 22 21 20 19
22 21 22 22 21 20 19 19 19 19 19 18 18 19 20 20 21 21 22 22 22 22 22 22 22 23 23 24 24 24 23 23 23 23 24 24 24 23 22 21 20 19 19
21 21 21 20 20 19 19 18 18 18 18 18 18 19 19 20 21 22 21 22 22 22 22 22 22 22 23 23 23 23 22 22 22 22 23 23 22 22 21 20 19 18 17
21 20 20 20 19 19 18 18 17 18 19 19 18 18 18 19 20 21 21 22 22 21 21 21 22 21 21 21 21 21 21 21 21 21 21 21 20 20 20 20 19 17 16
21 20 20 19 19 18 18 18 18 19 19 19 18 17 18 19 19 20 20 20 20 20 20 20 20 20 20 19 19 18 18 18 19 19 19 19 19 19 19 19 19 17 16
20 19 18 18 17 17 18 18 18 18 18 18 17 17 17 18 18 19 19 19 18 18 18 19 19 18 18 17 17 17 16 16 17 17 17 17 18 18 18 18 18 17 16
18 18 17 17 17 16 16 17 17 17 17 17 17 17 17 17 17 17 17 17 17 17 17 17 17 16 16 16 16 16 16 16 16 16 16 16 17 18 17 17 17 17 16
19 18 18 18 17 17 17 17 17 17 16 16 16 16 16 15 15 15 15 15 16 16 16 16 16 16 16 15 15 15 16 16 16 16 16 16 16 16 16 16 16 15 15
19 19 19 18 18 17 17 17 17 16 15 15 15 15 15 15 15 15 15 15 16 16 16 16 15 16 16 16 16 15 15 16 16 17 16 16 15 15 16 16 16 16 16
18 18 19 19 18 17 16 16 16 15 15 15 15 15 15 15 15 15 15 15 15 16 16 16 16 15 15 15 15 15 15 15 15 16 15 15 15 16 16 16 16 16 16
18 18 19 19 19 17 17 16 16 16 15 15 15 15 15 15 15 14 14 14 15 15 16 16 16 15 15 15 15 15 15 15 15 15 15 15 15 15 16 16 16 16 16
Wind_Direction
271 271 272 272 271 270 269 269 269 268 268 268 267 268 268 268 267 266 265 265 263 263 265 266 266 271 272 272 272 271 269 266 264 263 264 265 267 266 268 269 272 273 276
273 273 274 274 273 273 271 270 269 269 268 268 270 270 270 269 268 265 264 265 263 263 265 266 267 271 273 273 272 272 269 265 263 262 263 265 265 266 268 269 271 274 275
273 274 275 276 275 276 274 271 270 270 270 270 271 271 271 270 267 265 265 265 263 263 265 268 270 271 272 273 273 271 269 265 263 262 262 263 265 267 268 269 272 274 274
275 274 275 276 276 277 276 275 272 271 271 271 271 271 271 269 266 264 265 264 263 264 267 269 270 271 272 272 271 270 269 266 264 263 262 264 266 267 268 270 272 273 273
277 275 275 276 277 277 276 276 274 273 271 271 271 271 269 268 266 264 265 264 264 266 268 269 270 271 272 271 270 268 267 266 264 263 264 265 266 267 269 271 272 273 272
282 278 277 277 277 277 277 276 274 272 272 272 271 270 268 268 266 266 267 266 265 267 268 269 269 269 269 270 268 266 265 264 265 265 265 266 267 268 270 271 273 273 272
283 281 279 278 278 278 277 276 275 274 274 273 271 269 268 267 266 266 267 266 266 267 269 269 268 268 268 268 266 265 263 264 265 266 266 267 268 268 269 270 273 274 273
283 279 278 279 279 278 279 278 276 275 274 274 272 269 267 267 265 266 266 265 266 267 268 269 269 269 267 266 263 262 263 264 264 265 267 268 268 268 270 271 272 274 273
284 281 280 281 282 282 281 279 277 276 274 274 275 270 267 266 265 265 263 264 265 267 269 270 269 268 267 264 262 263 264 264 263 265 267 267 267 268 270 272 273 274 274
287 283 283 285 285 284 283 282 279 278 276 275 275 273 270 268 266 265 264 265 266 267 269 269 270 268 264 262 261 262 262 261 262 264 266 267 267 269 270 271 272 274 274
287 285 285 286 286 286 286 285 283 279 278 276 275 275 273 270 268 267 267 266 266 267 268 269 269 266 263 262 262 262 260 259 261 264 265 266 268 270 271 272 273 274 273
289 287 287 286 286 287 286 287 285 282 280 279 277 276 275 272 270 270 270 269 268 269 269 269 266 262 262 262 262 261 259 258 259 261 262 264 267 269 269 269 270 270 271
289 289 288 287 286 286 286 287 285 284 284 282 279 276 274 271 269 269 270 271 271 270 269 269 266 261 262 265 263 260 258 258 259 261 263 265 266 267 268 268 267 268 270
290 290 290 288 287 286 285 285 283 282 283 283 280 275 272 270 270 270 271 272 273 272 270 268 266 263 262 264 263 260 260 260 260 261 263 264 265 265 266 266 266 268 268
290 289 290 290 289 288 287 285 283 283 283 281 278 274 272 270 271 270 271 273 273 272 271 266 263 264 265 264 262 261 261 260 260 260 260 260 261 262 263 263 264 264 265
289 289 290 291 290 290 289 286 284 285 283 280 278 275 273 271 271 272 273 274 274 272 270 267 265 266 266 264 263 262 261 259 258 258 257 257 258 258 260 261 260 262 264
291 290 290 289 289 291 291 287 283 284 285 282 279 279 277 273 271 272 274 276 274 272 270 268 268 267 267 265 264 262 260 258 259 259 258 258 257 255 255 255 256 260 263
290 289 289 289 290 291 290 286 283 283 284 284 281 280 278 275 273 274 276 276 275 272 270 270 270 269 269 266 263 261 259 258 258 258 257 257 256 254 251 252 254 260 262
288 288 288 291 290 289 286 284 284 287 287 285 282 281 280 279 278 277 276 275 274 272 271 271 269 269 269 266 262 259 257 256 256 256 256 255 254 251 250 251 253 260 261
289 289 289 289 288 287 287 286 286 288 289 287 284 283 283 283 283 281 278 276 273 272 271 269 267 266 267 266 261 257 254 254 255 255 255 254 253 250 249 249 252 257 259
286 286 289 289 288 289 290 290 289 289 289 288 286 285 284 284 283 281 277 274 274 274 272 269 267 264 264 263 258 254 251 252 254 254 255 256 253 251 249 249 251 253 257
282 281 284 287 287 289 290 289 288 288 288 288 286 285 284 283 281 278 278 278 276 273 270 266 263 261 261 260 256 254 253 254 254 255 254 255 254 249 248 250 250 252 255
281 282 285 285 286 288 290 289 286 286 287 288 289 287 285 282 281 281 280 276 273 269 265 260 256 257 259 259 256 254 253 253 253 252 252 254 251 248 248 249 250 253 256
278 279 282 284 285 288 291 291 289 286 286 288 289 286 283 282 283 282 278 273 272 271 266 260 258 259 258 256 255 255 253 252 251 251 252 253 251 250 249 249 251 255 257
280 281 282 284 285 287 289 291 291 289 288 288 288 287 285 283 281 280 278 274 271 270 268 262 258 259 258 255 253 252 253 254 253 251 251 252 252 251 250 250 251 254 256
283 283 284 285 284 285 287 289 290 290 289 287 287 288 287 285 281 280 278 276 271 269 267 264 260 259 258 254 252 253 254 253 252 251 250 250 251 251 250 249 251 253 255
Height
5611 5610 5609 5608 5607 5606 5606 5606 5605 5605 5604 5604 5605 5604 5605 5605 5605 5604 5604 5605 5605 5606 5607 5607 5607 5606 5606 5604 5604 5603 5603 5603 5605 5607 5607 5607 5607 5608 5608 5607 5607 5607 5606
5603 5602 5601 5600 5599 5598 5597 5597 5597 5596 5596 5595 5595 5595 5595 5595 5595 5595 5595 5595 5596 5596 5597 5597 5597 5596 5595 5594 5593 5593 5593 5593 5595 5597 5597 5598 5598 5598 5598 5598 5598 5597 5596
5595 5594 5593 5592 5591 5590 5589 5588 5588 5587 5587 5586 5586 5586 5586 5585 5585 5585 5585 5586 5586 5587 5587 5587 5587 5586 5586 5584 5584 5583 5583 5584 5585 5586 5587 5588 5588 5588 5588 5588 5588 5587 5587
5587 5586 5585 5584 5583 5582 5580 5580 5579 5578 5577 5577 5577 5577 5577 5576 5576 5576 5576 5576 5577 5577 5578 5578 5578 5577 5576 5575 5575 5574 5574 5574 5575 5576 5577 5578 5578 5578 5578 5579 5578 5578 5577
5579 5578 5577 5576 5575 5573 5572 5571 5570 5569 5568 5568 5568 5568 5567 5567 5567 5567 5567 5567 5568 5568 5568 5568 5568 5567 5567 5566 5565 5565 5565 5565 5566 5567 5568 5568 5569 5569 5569 5569 5569 5568 5568
5571 5569 5568 5567 5566 5564 5563 5562 5561 5560 5559 5559 5559 5559 5558 5558 5558 5558 5558 5558 5558 5558 5558 5558 5558 5557 5557 5557 5556 5556 5556 5557 5558 5558 5559 5560 5560 5560 5560 5560 5560 5559 5560
5563 5562 5560 5559 5557 5556 5555 5554 5552 5551 5551 5550 5549 5549 5549 5549 5549 5549 5549 5548 5549 5549 5548 5548 5548 5548 5547 5547 5547 5547 5548 5548 5549 5550 5551 5551 5551 5551 5551 5551 5550 5550 5550
5556 5554 5552 5551 5549 5548 5547 5545 5544 5542 5541 5541 5540 5540 5539 5540 5539 5540 5539 5539 5539 5539 5539 5539 5538 5538 5538 5538 5538 5538 5539 5540 5541 5541 5543 5542 5542 5542 5542 5542 5541 5541 5541
5548 5547 5545 5543 5541 5540 5538 5536 5535 5533 5533 5532 5531 5531 5530 5530 5530 5530 5530 5530 5530 5530 5530 5530 5529 5529 5529 5528 5529 5530 5531 5532 5532 5533 5533 5533 5534 5534 5534 5533 5533 5533 5533
5540 5539 5537 5535 5534 5532 5530 5527 5526 5525 5524 5523 5523 5522 5522 5522 5522 5521 5521 5522 5522 5522 5522 5521 5520 5520 5519 5519 5519 5521 5522 5523 5523 5524 5525 5525 5525 5525 5525 5525 5525 5525 5526
5533 5531 5529 5527 5526 5524 5521 5519 5518 5517 5516 5515 5515 5514 5514 5513 5513 5514 5513 5513 5513 5513 5513 5512 5512 5511 5511 5511 5511 5512 5513 5514 5515 5516 5516 5517 5517 5517 5517 5517 5517 5517 5518
5525 5523 5521 5519 5518 5516 5514 5512 5510 5509 5508 5507 5507 5506 5506 5505 5505 5505 5505 5505 5504 5504 5504 5504 5503 5503 5502 5502 5502 5503 5504 5505 5506 5507 5508 5509 5509 5509 5509 5509 5509 5509 5510
5519 5516 5514 5512 5510 5508 5506 5505 5503 5502 5501 5500 5499 5499 5498 5498 5497 5497 5497 5496 5496 5496 5495 5495 5495 5494 5494 5494 5494 5495 5496 5497 5498 5499 5500 5501 5501 5501 5501 5502 5502 5502 5502
5512 5510 5507 5505 5503 5501 5499 5497 5496 5495 5494 5493 5492 5491 5491 5491 5490 5490 5489 5489 5488 5487 5487 5487 5486 5486 5486 5486 5486 5487 5488 5489 5490 5491 5492 5493 5493 5494 5494 5495 5495 5496 5496
5505 5503 5501 5498 5496 5494 5492 5490 5489 5488 5487 5486 5485 5485 5485 5485 5484 5483 5483 5482 5481 5480 5479 5479 5478 5478 5478 5479 5479 5479 5480 5481 5482 5483 5485 5485 5486 5487 5488 5488 5489 5489 5490
5499 5496 5494 5492 5490 5487 5485 5483 5482 5481 5480 5479 5478 5478 5478 5478 5477 5477 5476 5475 5474 5473 5472 5471 5471 5471 5471 5471 5471 5472 5473 5474 5475 5476 5477 5479 5480 5481 5482 5482 5483 5483 5484
5492 5490 5488 5486 5483 5481 5479 5478 5476 5475 5474 5473 5472 5471 5471 5471 5470 5469 5469 5468 5467 5466 5465 5464 5464 5464 5464 5464 5464 5465 5466 5467 5468 5469 5471 5472 5473 5474 5476 5477 5478 5478 5479
5485 5483 5481 5479 5478 5476 5474 5472 5471 5469 5468 5467 5466 5465 5464 5464 5463 5462 5462 5461 5460 5459 5458 5458 5458 5457 5457 5457 5457 5458 5459 5460 5462 5463 5465 5466 5467 5469 5470 5471 5473 5473 5474
5480 5478 5475 5473 5471 5470 5468 5466 5465 5464 5463 5461 5460 5459 5458 5457 5456 5455 5454 5454 5453 5453 5452 5452 5451 5451 5451 5451 5451 5452 5453 5454 5456 5457 5459 5460 5462 5463 5465 5466 5468 5469 5469
5473 5472 5470 5468 5466 5464 5463 5461 5460 5458 5457 5455 5454 5453 5452 5451 5450 5449 5448 5447 5447 5446 5446 5446 5446 5446 5446 5446 5446 5447 5448 5449 5451 5452 5454 5455 5457 5458 5460 5461 5463 5464 5465
5467 5466 5464 5462 5460 5459 5457 5456 5454 5452 5451 5450 5449 5447 5446 5445 5444 5443 5442 5441 5441 5440 5440 5440 5440 5440 5441 5441 5442 5443 5444 5445 5446 5448 5449 5450 5452 5453 5455 5456 5458 5459 5460
5462 5461 5459 5457 5455 5453 5452 5450 5448 5447 5446 5444 5443 5441 5440 5439 5438 5437 5437 5436 5435 5435 5435 5435 5435 5436 5436 5437 5438 5439 5440 5441 5442 5443 5444 5446 5447 5448 5450 5451 5452 5453 5455
5456 5455 5454 5452 5450 5449 5447 5445 5443 5442 5440 5439 5437 5436 5435 5434 5433 5432 5432 5431 5430 5430 5430 5430 5431 5432 5432 5433 5433 5435 5436 5436 5438 5439 5440 5441 5442 5444 5445 5446 5447 5449 5450
5450 5449 5448 5446 5445 5443 5442 5440 5438 5437 5435 5434 5433 5431 5430 5430 5429 5428 5427 5427 5426 5426 5426 5426 5427 5427 5428 5428 5429 5430 5431 5431 5433 5434 5435 5437 5438 5439 5441 5442 5443 5444 5445
5444 5443 5442 5441 5439 5438 5436 5435 5433 5432 5431 5429 5428 5427 5426 5425 5424 5423 5422 5422 5421 5421 5421 5421 5422 5422 5423 5424 5425 5425 5426 5427 5428 5429 5431 5432 5434 5435 5436 5437 5438 5439 5440
5438 5437 5436 5435 5433 5432 5431 5430 5429 5427 5426 5425 5424 5423 5421 5420 5419 5419 5418 5417 5417 5417 5417 5417 5417 5418 5418 5419 5420 5421 5422 5423 5424 5425 5426 5427 5429 5430 5431 5432 5433 5434 5435